Time,TemperatureF,DewpointF,PressureIn,WindDirection,WindDirectionDegrees,WindSpeedMPH,WindSpeedGustMPH,Humidity,HourlyPrecipIn,Conditions,Clouds,dailyrainin,SoftwareType,DateUTC
2013-05-20 00:01:00,70.7,62.8,29.91,South,186,2.0,2.0,76,0.00,,,0.00,Wunderground v.1.15,2013-05-20 04:01:00,
2013-05-20 00:02:00,70.7,62.8,29.91,South,175,2.0,2.0,76,0.00,,,0.00,Wunderground v.1.15,2013-05-20 04:02:00,
2013-05-20 00:04:00,70.6,62.7,29.91,South,189,2.0,2.0,76,0.00,,,0.00,Wunderground v.1.15,2013-05-20 04:04:00,
2013-05-20 00:07:00,70.6,62.7,29.91,South,188,2.0,3.0,76,0.00,,,0.00,Wunderground v.1.15,2013-05-20 04:07:00,
2013-05-20 00:12:00,70.4,62.5,29.91,South,184,1.0,1.0,76,0.00,,,0.00,Wunderground v.1.15,2013-05-20 04:12:00,
2013-05-20 00:18:00,70.3,62.4,29.91,SSW,200,2.0,2.0,76,0.00,,,0.00,Wunderground v.1.15,2013-05-20 04:18:00,
2013-05-20 00:20:00,70.2,62.3,29.91,SSW,192,2.0,3.0,76,0.00,,,0.00,Wunderground v.1.15,2013-05-20 04:20:00,
2013-05-20 00:26:00,70.0,62.5,29.91,South,188,2.0,3.0,77,0.00,,,0.00,Wunderground v.1.15,2013-05-20 04:26:00,
2013-05-20 00:32:00,69.9,62.4,29.91,SSW,194,1.0,2.0,77,0.00,,,0.00,Wunderground v.1.15,2013-05-20 04:32:00,
2013-05-20 00:37:00,69.7,62.2,29.91,SSW,192,1.0,3.0,77,0.00,,,0.00,Wunderground v.1.15,2013-05-20 04:37:00,
2013-05-20 00:43:00,69.6,62.1,29.92,SW,215,1.0,3.0,77,0.00,,,0.00,Wunderground v.1.15,2013-05-20 04:43:00,
2013-05-20 00:49:00,69.4,62.2,29.91,SSW,210,0.0,3.0,78,0.00,,,0.00,Wunderground v.1.15,2013-05-20 04:49:00,
2013-05-20 00:54:00,69.3,62.1,29.91,SSW,205,1.0,6.0,78,0.00,,,0.00,Wunderground v.1.15,2013-05-20 04:54:00,
2013-05-20 01:00:00,69.2,62.0,29.91,SSW,203,1.0,1.0,78,0.00,,,0.00,Wunderground v.1.15,2013-05-20 05:00:00,
2013-05-20 01:06:00,69.0,61.9,29.91,SSW,192,1.0,6.0,78,0.00,,,0.00,Wunderground v.1.15,2013-05-20 05:06:00,
2013-05-20 01:11:00,68.9,62.1,29.91,SSW,194,2.0,2.0,79,0.00,,,0.00,Wunderground v.1.15,2013-05-20 05:11:00,
2013-05-20 01:16:00,68.8,62.0,29.91,SSW,192,1.0,4.0,79,0.00,,,0.00,Wunderground v.1.15,2013-05-20 05:16:00,
2013-05-20 01:22:00,68.6,61.8,29.91,South,190,1.0,4.0,79,0.00,,,0.00,Wunderground v.1.15,2013-05-20 05:22:00,
2013-05-20 01:27:00,68.5,61.7,29.91,South,190,1.0,4.0,79,0.00,,,0.00,Wunderground v.1.15,2013-05-20 05:27:00,
2013-05-20 01:33:00,68.5,61.7,29.90,South,189,1.0,4.0,79,0.00,,,0.00,Wunderground v.1.15,2013-05-20 05:33:00,
2013-05-20 01:39:00,68.3,61.5,29.90,South,188,1.0,4.0,79,0.00,,,0.00,Wunderground v.1.15,2013-05-20 05:39:00,
2013-05-20 01:44:00,68.2,61.8,29.90,South,188,0.0,0.0,80,0.00,,,0.00,Wunderground v.1.15,2013-05-20 05:44:00,
2013-05-20 01:50:00,68.0,61.6,29.89,South,187,0.0,0.0,80,0.00,,,0.00,Wunderground v.1.15,2013-05-20 05:50:00,
2013-05-20 01:55:00,67.9,61.5,29.89,South,187,0.0,0.0,80,0.00,,,0.00,Wunderground v.1.15,2013-05-20 05:55:00,
2013-05-20 02:01:00,67.8,61.4,29.89,South,187,0.0,0.0,80,0.00,,,0.00,Wunderground v.1.15,2013-05-20 06:01:00,
2013-05-20 02:06:00,67.7,61.7,29.89,South,187,0.0,2.0,81,0.00,,,0.00,Wunderground v.1.15,2013-05-20 06:06:00,
2013-05-20 02:12:00,67.6,61.6,29.90,South,188,0.0,0.0,81,0.00,,,0.00,Wunderground v.1.15,2013-05-20 06:12:00,
2013-05-20 02:17:00,67.5,61.5,29.90,South,183,1.0,1.0,81,0.00,,,0.00,Wunderground v.1.15,2013-05-20 06:17:00,
2013-05-20 02:23:00,67.4,61.7,29.91,South,189,1.0,1.0,82,0.00,,,0.00,Wunderground v.1.15,2013-05-20 06:23:00,
2013-05-20 02:29:00,67.3,61.6,29.89,South,190,1.0,3.0,82,0.00,,,0.00,Wunderground v.1.15,2013-05-20 06:29:00,
2013-05-20 02:34:00,67.2,61.5,29.89,South,183,1.0,3.0,82,0.00,,,0.00,Wunderground v.1.15,2013-05-20 06:34:00,
2013-05-20 02:40:00,67.2,61.5,29.88,South,179,1.0,1.0,82,0.00,,,0.00,Wunderground v.1.15,2013-05-20 06:40:00,
2013-05-20 02:45:00,67.2,61.5,29.88,SSE,165,1.0,2.0,82,0.00,,,0.00,Wunderground v.1.15,2013-05-20 06:45:00,
2013-05-20 02:51:00,67.3,61.6,29.89,SSE,165,1.0,1.0,82,0.00,,,0.00,Wunderground v.1.15,2013-05-20 06:51:00,
2013-05-20 02:56:00,67.2,61.9,29.89,SSE,165,0.0,1.0,83,0.00,,,0.00,Wunderground v.1.15,2013-05-20 06:56:00,
2013-05-20 03:01:00,67.1,61.8,29.90,SSE,165,0.0,0.0,83,0.00,,,0.00,Wunderground v.1.15,2013-05-20 07:01:00,
2013-05-20 03:06:00,67.0,61.7,29.90,SSE,165,0.0,0.0,83,0.00,,,0.00,Wunderground v.1.15,2013-05-20 07:06:00,
2013-05-20 03:12:00,66.9,61.6,29.91,SSE,165,0.0,0.0,83,0.00,,,0.00,Wunderground v.1.15,2013-05-20 07:12:00,
2013-05-20 03:17:00,66.8,61.8,29.91,SSE,165,0.0,0.0,84,0.00,,,0.00,Wunderground v.1.15,2013-05-20 07:17:00,
2013-05-20 03:23:00,66.8,61.8,29.91,SSE,165,0.0,2.0,84,0.00,,,0.00,Wunderground v.1.15,2013-05-20 07:23:00,
2013-05-20 03:29:00,66.9,62.2,29.91,South,169,1.0,4.0,85,0.00,,,0.00,Wunderground v.1.15,2013-05-20 07:29:00,
2013-05-20 03:34:00,67.1,62.1,29.91,South,175,1.0,3.0,84,0.00,,,0.00,Wunderground v.1.15,2013-05-20 07:34:00,
2013-05-20 03:40:00,67.4,62.1,29.91,South,182,1.0,3.0,83,0.00,,,0.00,Wunderground v.1.15,2013-05-20 07:40:00,
2013-05-20 03:45:00,67.5,62.2,29.90,South,188,1.0,3.0,83,0.00,,,0.00,Wunderground v.1.15,2013-05-20 07:45:00,
2013-05-20 03:51:00,67.5,62.2,29.90,SSW,194,1.0,1.0,83,0.00,,,0.00,Wunderground v.1.15,2013-05-20 07:51:00,
2013-05-20 03:56:00,67.5,62.2,29.90,SSW,194,1.0,3.0,83,0.00,,,0.00,Wunderground v.1.15,2013-05-20 07:56:00,
2013-05-20 04:02:00,67.4,62.4,29.90,SSW,192,1.0,1.0,84,0.00,,,0.00,Wunderground v.1.15,2013-05-20 08:02:00,
2013-05-20 04:07:00,67.4,62.1,29.89,SSW,193,0.0,2.0,83,0.00,,,0.00,Wunderground v.1.15,2013-05-20 08:07:00,
2013-05-20 04:13:00,67.3,62.3,29.89,SSW,192,0.0,0.0,84,0.00,,,0.00,Wunderground v.1.15,2013-05-20 08:13:00,
2013-05-20 04:19:00,67.2,62.2,29.90,SSW,213,0.0,4.0,84,0.00,,,0.00,Wunderground v.1.15,2013-05-20 08:19:00,
2013-05-20 04:24:00,67.2,62.2,29.90,South,182,1.0,2.0,84,0.00,,,0.00,Wunderground v.1.15,2013-05-20 08:24:00,
2013-05-20 04:30:00,67.4,62.7,29.89,SSW,196,2.0,4.0,85,0.00,,,0.00,Wunderground v.1.15,2013-05-20 08:30:00,
2013-05-20 04:35:00,67.4,62.4,29.89,SSW,196,1.0,4.0,84,0.00,,,0.00,Wunderground v.1.15,2013-05-20 08:35:00,
2013-05-20 04:41:00,67.5,62.5,29.88,South,188,0.0,3.0,84,0.00,,,0.00,Wunderground v.1.15,2013-05-20 08:41:00,
2013-05-20 04:46:00,67.6,62.9,29.88,South,184,1.0,3.0,85,0.00,,,0.00,Wunderground v.1.15,2013-05-20 08:46:00,
2013-05-20 04:52:00,67.7,63.0,29.88,South,189,1.0,1.0,85,0.00,,,0.00,Wunderground v.1.15,2013-05-20 08:52:00,
2013-05-20 04:57:00,67.7,63.0,29.89,South,189,0.0,1.0,85,0.00,,,0.00,Wunderground v.1.15,2013-05-20 08:57:00,
2013-05-20 05:03:00,67.6,62.9,29.90,South,189,0.0,0.0,85,0.00,,,0.00,Wunderground v.1.15,2013-05-20 09:03:00,
2013-05-20 05:09:00,67.5,62.8,29.91,South,188,0.0,0.0,85,0.00,,,0.00,Wunderground v.1.15,2013-05-20 09:09:00,
2013-05-20 05:14:00,67.3,62.6,29.92,South,189,0.0,0.0,85,0.00,,,0.00,Wunderground v.1.15,2013-05-20 09:14:00,
2013-05-20 05:19:00,67.2,62.5,29.92,South,189,0.0,0.0,85,0.00,,,0.00,Wunderground v.1.15,2013-05-20 09:19:00,
2013-05-20 05:24:00,66.9,62.6,29.92,South,189,0.0,0.0,86,0.00,,,0.00,Wunderground v.1.15,2013-05-20 09:24:00,
2013-05-20 05:30:00,66.8,62.5,29.92,South,188,0.0,1.0,86,0.00,,,0.00,Wunderground v.1.15,2013-05-20 09:30:00,
2013-05-20 05:35:00,66.7,62.4,29.92,South,188,0.0,3.0,86,0.00,,,0.00,Wunderground v.1.15,2013-05-20 09:35:00,
2013-05-20 05:41:00,66.6,62.6,29.91,South,188,0.0,1.0,87,0.00,,,0.00,Wunderground v.1.15,2013-05-20 09:41:00,
2013-05-20 05:46:00,66.5,62.5,29.90,South,188,0.0,2.0,87,0.00,,,0.00,Wunderground v.1.15,2013-05-20 09:46:00,
2013-05-20 05:52:00,66.4,62.4,29.90,South,184,1.0,3.0,87,0.00,,,0.00,Wunderground v.1.15,2013-05-20 09:52:00,
2013-05-20 05:57:00,66.3,62.3,29.90,South,185,0.0,3.0,87,0.00,,,0.00,Wunderground v.1.15,2013-05-20 09:57:00,
2013-05-20 06:03:00,66.4,62.4,29.90,South,184,0.0,3.0,87,0.00,,,0.00,Wunderground v.1.15,2013-05-20 10:03:00,
2013-05-20 06:09:00,66.4,62.4,29.90,South,184,0.0,3.0,87,0.00,,,0.00,Wunderground v.1.15,2013-05-20 10:09:00,
2013-05-20 06:14:00,66.4,62.7,29.90,South,184,0.0,0.0,88,0.00,,,0.00,Wunderground v.1.15,2013-05-20 10:14:00,
2013-05-20 06:20:00,66.5,62.8,29.89,South,184,0.0,0.0,88,0.00,,,0.00,Wunderground v.1.15,2013-05-20 10:20:00,
2013-05-20 06:25:00,66.5,62.8,29.89,South,183,0.0,3.0,88,0.00,,,0.00,Wunderground v.1.15,2013-05-20 10:25:00,
2013-05-20 06:31:00,66.6,62.9,29.88,South,180,0.0,5.0,88,0.00,,,0.00,Wunderground v.1.15,2013-05-20 10:31:00,
2013-05-20 06:36:00,66.7,63.0,29.88,South,183,1.0,5.0,88,0.00,,,0.00,Wunderground v.1.15,2013-05-20 10:36:00,
2013-05-20 06:41:00,66.8,63.1,29.88,South,184,1.0,1.0,88,0.00,,,0.00,Wunderground v.1.15,2013-05-20 10:41:00,
2013-05-20 06:46:00,67.0,63.3,29.88,South,185,1.0,1.0,88,0.00,,,0.00,Wunderground v.1.15,2013-05-20 10:46:00,
2013-05-20 06:51:00,67.0,63.3,29.88,South,182,0.0,0.0,88,0.00,,,0.00,Wunderground v.1.15,2013-05-20 10:51:00,
2013-05-20 06:57:00,67.2,63.5,29.88,NW,324,0.0,1.0,88,0.00,,,0.00,Wunderground v.1.15,2013-05-20 10:57:00,
2013-05-20 07:02:00,67.3,63.6,29.88,NW,321,0.0,0.0,88,0.00,,,0.00,Wunderground v.1.15,2013-05-20 11:02:00,
2013-05-20 07:07:00,67.5,63.8,29.88,South,175,0.0,0.0,88,0.00,,,0.00,Wunderground v.1.15,2013-05-20 11:07:00,
2013-05-20 07:12:00,67.7,63.7,29.88,South,178,1.0,1.0,87,0.00,,,0.00,Wunderground v.1.15,2013-05-20 11:12:00,
2013-05-20 07:18:00,68.1,64.1,29.88,South,169,1.0,3.0,87,0.00,,,0.00,Wunderground v.1.15,2013-05-20 11:18:00,
2013-05-20 07:25:00,68.5,64.1,29.88,South,171,2.0,6.0,86,0.00,,,0.00,Wunderground v.1.15,2013-05-20 11:25:00,
2013-05-20 07:31:00,68.8,64.4,29.88,South,190,2.0,5.0,86,0.00,,,0.00,Wunderground v.1.15,2013-05-20 11:31:00,
2013-05-20 07:36:00,69.1,64.4,29.88,South,191,2.0,5.0,85,0.00,,,0.00,Wunderground v.1.15,2013-05-20 11:36:00,
2013-05-20 07:41:00,69.3,64.6,29.88,South,173,3.0,5.0,85,0.00,,,0.00,Wunderground v.1.15,2013-05-20 11:41:00,
2013-05-20 07:46:00,69.5,64.8,29.87,South,176,2.0,5.0,85,0.00,,,0.00,Wunderground v.1.15,2013-05-20 11:46:00,
2013-05-20 07:51:00,69.7,64.6,29.86,SSE,155,2.0,6.0,84,0.00,,,0.00,Wunderground v.1.15,2013-05-20 11:51:00,
2013-05-20 07:57:00,69.9,64.8,29.87,South,173,2.0,6.0,84,0.00,,,0.00,Wunderground v.1.15,2013-05-20 11:57:00,
2013-05-20 08:04:00,70.2,64.8,29.87,South,177,2.0,2.0,83,0.00,,,0.00,Wunderground v.1.15,2013-05-20 12:04:00,
2013-05-20 08:10:00,70.4,65.0,29.87,SSE,151,3.0,3.0,83,0.00,,,0.00,Wunderground v.1.15,2013-05-20 12:10:00,
2013-05-20 08:15:00,70.6,65.2,29.87,South,171,3.0,3.0,83,0.00,,,0.00,Wunderground v.1.15,2013-05-20 12:15:00,
2013-05-20 08:20:00,70.8,65.4,29.87,SSW,208,2.0,2.0,83,0.00,,,0.00,Wunderground v.1.15,2013-05-20 12:20:00,
2013-05-20 08:25:00,71.1,65.3,29.87,SE,141,2.0,6.0,82,0.00,,,0.00,Wunderground v.1.15,2013-05-20 12:25:00,
2013-05-20 08:31:00,71.6,65.8,29.88,South,186,3.0,5.0,82,0.00,,,0.00,Wunderground v.1.15,2013-05-20 12:31:00,
2013-05-20 08:36:00,71.9,65.8,29.89,SW,222,3.0,5.0,81,0.00,,,0.00,Wunderground v.1.15,2013-05-20 12:36:00,
2013-05-20 08:42:00,71.9,65.8,29.90,SSW,195,3.0,4.0,81,0.00,,,0.00,Wunderground v.1.15,2013-05-20 12:42:00,
2013-05-20 08:48:00,71.8,65.3,29.90,South,171,3.0,6.0,80,0.00,,,0.00,Wunderground v.1.15,2013-05-20 12:48:00,
2013-05-20 08:53:00,71.8,65.7,29.90,SSW,206,2.0,6.0,81,0.00,,,0.00,Wunderground v.1.15,2013-05-20 12:53:00,
2013-05-20 08:58:00,71.8,65.7,29.90,SSW,209,2.0,8.0,81,0.00,,,0.00,Wunderground v.1.15,2013-05-20 12:58:00,
2013-05-20 09:04:00,71.9,65.8,29.90,SSW,198,2.0,3.0,81,0.00,,,0.00,Wunderground v.1.15,2013-05-20 13:04:00,
2013-05-20 09:10:00,72.0,65.8,29.90,SSW,205,2.0,5.0,81,0.00,,,0.00,Wunderground v.1.15,2013-05-20 13:10:00,
2013-05-20 09:15:00,71.9,66.1,29.90,SSW,207,2.0,5.0,82,0.00,,,0.00,Wunderground v.1.15,2013-05-20 13:15:00,
2013-05-20 09:20:00,71.7,65.9,29.90,South,184,1.0,6.0,82,0.00,,,0.00,Wunderground v.1.15,2013-05-20 13:20:00,
2013-05-20 09:26:00,71.7,65.9,29.90,SSW,202,2.0,6.0,82,0.00,,,0.00,Wunderground v.1.15,2013-05-20 13:26:00,
2013-05-20 09:31:00,71.8,66.4,29.90,SSW,205,2.0,3.0,83,0.00,,,0.00,Wunderground v.1.15,2013-05-20 13:31:00,
2013-05-20 09:37:00,72.2,66.7,29.90,SSW,203,3.0,7.0,83,0.00,,,0.00,Wunderground v.1.15,2013-05-20 13:37:00,
2013-05-20 09:43:00,72.5,67.0,29.90,SW,223,3.0,4.0,83,0.00,,,0.00,Wunderground v.1.15,2013-05-20 13:43:00,
2013-05-20 09:48:00,72.8,67.0,29.90,SSW,212,2.0,5.0,82,0.00,,,0.00,Wunderground v.1.15,2013-05-20 13:48:00,
2013-05-20 09:54:00,73.1,67.3,29.90,SW,221,3.0,7.0,82,0.00,,,0.00,Wunderground v.1.15,2013-05-20 13:54:00,
2013-05-20 10:00:00,73.5,67.3,29.90,SSW,203,3.0,7.0,81,0.00,,,0.00,Wunderground v.1.15,2013-05-20 14:00:00,
2013-05-20 10:05:00,74.0,67.8,29.89,SSW,212,2.0,7.0,81,0.00,,,0.00,Wunderground v.1.15,2013-05-20 14:05:00,
2013-05-20 10:11:00,74.8,67.8,29.88,SSW,201,3.0,4.0,79,0.00,,,0.00,Wunderground v.1.15,2013-05-20 14:11:00,
2013-05-20 10:16:00,75.1,68.1,29.89,SW,223,3.0,6.0,79,0.00,,,0.00,Wunderground v.1.15,2013-05-20 14:16:00,
2013-05-20 10:22:00,75.6,68.3,29.88,SSW,205,3.0,5.0,78,0.00,,,0.00,Wunderground v.1.15,2013-05-20 14:22:00,
2013-05-20 10:28:00,76.3,68.6,29.88,SSW,210,3.0,5.0,77,0.00,,,0.00,Wunderground v.1.15,2013-05-20 14:28:00,
2013-05-20 10:33:00,76.7,68.6,29.88,South,183,4.0,6.0,76,0.00,,,0.00,Wunderground v.1.15,2013-05-20 14:33:00,
2013-05-20 10:39:00,77.3,68.8,29.89,SSW,200,3.0,5.0,75,0.00,,,0.00,Wunderground v.1.15,2013-05-20 14:39:00,
2013-05-20 10:44:00,77.7,69.1,29.89,SSW,206,3.0,7.0,75,0.00,,,0.00,Wunderground v.1.15,2013-05-20 14:44:00,
2013-05-20 10:50:00,78.3,69.7,29.88,South,190,2.0,6.0,75,0.00,,,0.00,Wunderground v.1.15,2013-05-20 14:50:00,
2013-05-20 10:55:00,78.8,69.8,29.89,South,191,2.0,6.0,74,0.00,,,0.00,Wunderground v.1.15,2013-05-20 14:55:00,
2013-05-20 11:01:00,79.1,69.7,29.88,South,175,3.0,3.0,73,0.00,,,0.00,Wunderground v.1.15,2013-05-20 15:01:00,
2013-05-20 11:06:00,79.4,69.6,29.88,SW,215,4.0,7.0,72,0.00,,,0.00,Wunderground v.1.15,2013-05-20 15:06:00,
2013-05-20 11:12:00,79.8,70.0,29.88,SW,225,4.0,4.0,72,0.00,,,0.00,Wunderground v.1.15,2013-05-20 15:12:00,
2013-05-20 11:18:00,80.2,69.9,29.88,SSW,192,2.0,4.0,71,0.00,,,0.00,Wunderground v.1.15,2013-05-20 15:18:00,
2013-05-20 11:23:00,80.4,70.5,29.88,SSW,210,1.0,2.0,72,0.00,,,0.00,Wunderground v.1.15,2013-05-20 15:23:00,
2013-05-20 11:28:00,80.7,71.2,29.88,SW,223,1.0,6.0,73,0.00,,,0.00,Wunderground v.1.15,2013-05-20 15:28:00,
2013-05-20 11:33:00,81.1,70.0,29.87,SSW,204,3.0,9.0,69,0.00,,,0.00,Wunderground v.1.15,2013-05-20 15:33:00,
2013-05-20 11:39:00,81.2,70.1,29.86,SSW,204,5.0,5.0,69,0.00,,,0.00,Wunderground v.1.15,2013-05-20 15:39:00,
2013-05-20 11:44:00,81.3,70.2,29.86,SW,223,4.0,8.0,69,0.00,,,0.00,Wunderground v.1.15,2013-05-20 15:44:00,
2013-05-20 11:50:00,81.6,70.4,29.85,SE,133,3.0,3.0,69,0.00,,,0.00,Wunderground v.1.15,2013-05-20 15:50:00,
2013-05-20 11:55:00,81.7,70.1,29.85,SSW,203,4.0,6.0,68,0.00,,,0.00,Wunderground v.1.15,2013-05-20 15:55:00,
2013-05-20 12:01:00,82.0,70.8,29.86,SSW,213,4.0,4.0,69,0.00,,,0.00,Wunderground v.1.15,2013-05-20 16:01:00,
2013-05-20 12:06:00,82.2,70.6,29.86,SW,218,4.0,7.0,68,0.00,,,0.00,Wunderground v.1.15,2013-05-20 16:06:00,
2013-05-20 12:11:00,82.5,71.7,29.87,South,188,3.0,3.0,70,0.00,,,0.00,Wunderground v.1.15,2013-05-20 16:11:00,
2013-05-20 12:16:00,82.8,71.2,29.86,SSW,199,2.0,6.0,68,0.00,,,0.00,Wunderground v.1.15,2013-05-20 16:16:00,
2013-05-20 12:23:00,82.8,70.3,29.85,SW,217,4.0,4.0,66,0.00,,,0.00,Wunderground v.1.15,2013-05-20 16:23:00,
2013-05-20 12:28:00,83.2,70.2,29.85,SSW,192,4.0,9.0,65,0.00,,,0.00,Wunderground v.1.15,2013-05-20 16:28:00,
2013-05-20 12:33:00,83.4,71.3,29.85,SSE,168,5.0,7.0,67,0.00,,,0.00,Wunderground v.1.15,2013-05-20 16:33:00,
2013-05-20 12:39:00,83.4,70.4,29.85,South,181,5.0,5.0,65,0.00,,,0.00,Wunderground v.1.15,2013-05-20 16:39:00,
2013-05-20 12:44:00,83.3,69.8,29.84,WSW,246,5.0,6.0,64,0.00,,,0.00,Wunderground v.1.15,2013-05-20 16:44:00,
2013-05-20 12:50:00,83.3,69.8,29.84,SSW,198,5.0,7.0,64,0.00,,,0.00,Wunderground v.1.15,2013-05-20 16:50:00,
2013-05-20 12:55:00,83.5,70.0,29.84,South,177,4.0,7.0,64,0.00,,,0.00,Wunderground v.1.15,2013-05-20 16:55:00,
2013-05-20 13:01:00,83.7,69.8,29.84,SW,231,5.0,6.0,63,0.00,,,0.00,Wunderground v.1.15,2013-05-20 17:01:00,
2013-05-20 13:06:00,84.1,70.1,29.84,South,188,4.0,7.0,63,0.00,,,0.00,Wunderground v.1.15,2013-05-20 17:06:00,
2013-05-20 13:12:00,84.4,70.4,29.83,SSW,209,3.0,10.0,63,0.00,,,0.00,Wunderground v.1.15,2013-05-20 17:12:00,
2013-05-20 13:18:00,84.5,70.0,29.83,South,181,5.0,12.0,62,0.00,,,0.00,Wunderground v.1.15,2013-05-20 17:18:00,
2013-05-20 13:23:00,84.9,69.5,29.83,SSW,198,6.0,12.0,60,0.00,,,0.00,Wunderground v.1.15,2013-05-20 17:23:00,
2013-05-20 13:29:00,85.0,69.1,29.84,SW,227,5.0,12.0,59,0.00,,,0.00,Wunderground v.1.15,2013-05-20 17:29:00,
2013-05-20 13:34:00,84.9,68.0,29.84,South,191,6.0,12.0,57,0.00,,,0.00,Wunderground v.1.15,2013-05-20 17:34:00,
2013-05-20 13:40:00,84.7,69.3,29.84,SW,217,8.0,14.0,60,0.00,,,0.00,Wunderground v.1.15,2013-05-20 17:40:00,
2013-05-20 13:45:00,85.0,68.6,29.84,SSW,192,9.0,14.0,58,0.00,,,0.00,Wunderground v.1.15,2013-05-20 17:45:00,
2013-05-20 13:51:00,85.4,68.9,29.84,SSW,199,8.0,8.0,58,0.00,,,0.00,Wunderground v.1.15,2013-05-20 17:51:00,
2013-05-20 13:56:00,85.7,69.2,29.83,SW,226,7.0,10.0,58,0.00,,,0.00,Wunderground v.1.15,2013-05-20 17:56:00,
2013-05-20 14:03:00,86.0,68.5,29.83,SSW,200,9.0,13.0,56,0.00,,,0.00,Wunderground v.1.15,2013-05-20 18:03:00,
2013-05-20 14:08:00,85.9,67.9,29.83,WSW,239,9.0,13.0,55,0.00,,,0.00,Wunderground v.1.15,2013-05-20 18:08:00,
2013-05-20 14:13:00,85.9,68.4,29.83,SSW,207,7.0,10.0,56,0.00,,,0.00,Wunderground v.1.15,2013-05-20 18:13:00,
2013-05-20 14:19:00,86.0,68.0,29.82,SW,229,7.0,11.0,55,0.00,,,0.00,Wunderground v.1.15,2013-05-20 18:19:00,
2013-05-20 14:25:00,86.4,68.3,29.82,SSW,202,8.0,11.0,55,0.00,,,0.00,Wunderground v.1.15,2013-05-20 18:25:00,
2013-05-20 14:31:00,87.0,69.4,29.81,West,275,5.0,6.0,56,0.00,,,0.00,Wunderground v.1.15,2013-05-20 18:31:00,
2013-05-20 14:36:00,87.5,69.3,29.82,SW,226,4.0,6.0,55,0.00,,,0.00,Wunderground v.1.15,2013-05-20 18:36:00,
2013-05-20 14:42:00,88.0,69.3,29.81,SSW,195,5.0,7.0,54,0.00,,,0.00,Wunderground v.1.15,2013-05-20 18:42:00,
2013-05-20 14:48:00,88.1,68.8,29.81,South,173,5.0,11.0,53,0.00,,,0.00,Wunderground v.1.15,2013-05-20 18:48:00,
2013-05-20 14:53:00,87.9,69.2,29.81,South,186,6.0,6.0,54,0.00,,,0.00,Wunderground v.1.15,2013-05-20 18:53:00,
2013-05-20 14:59:00,87.9,68.6,29.80,South,184,5.0,10.0,53,0.00,,,0.00,Wunderground v.1.15,2013-05-20 18:59:00,
2013-05-20 15:04:00,88.0,68.2,29.80,SSE,160,6.0,18.0,52,0.00,,,0.00,Wunderground v.1.15,2013-05-20 19:04:00,
2013-05-20 15:10:00,87.9,68.1,29.80,SW,214,6.0,17.0,52,0.00,,,0.00,Wunderground v.1.15,2013-05-20 19:10:00,
2013-05-20 15:15:00,87.5,68.3,29.79,SW,223,6.0,17.0,53,0.00,,,0.00,Wunderground v.1.15,2013-05-20 19:15:00,
2013-05-20 15:21:00,87.7,68.4,29.79,South,190,8.0,9.0,53,0.00,,,0.00,Wunderground v.1.15,2013-05-20 19:21:00,
2013-05-20 15:27:00,88.1,68.3,29.78,SSW,207,7.0,12.0,52,0.00,,,0.00,Wunderground v.1.15,2013-05-20 19:27:00,
2013-05-20 15:33:00,88.7,69.4,29.77,South,188,5.0,11.0,53,0.00,,,0.00,Wunderground v.1.15,2013-05-20 19:33:00,
2013-05-20 15:38:00,89.0,68.5,29.77,SSW,206,5.0,14.0,51,0.00,,,0.00,Wunderground v.1.15,2013-05-20 19:38:00,
2013-05-20 15:44:00,88.3,67.9,29.76,SSW,199,7.0,19.0,51,0.00,,,0.00,Wunderground v.1.15,2013-05-20 19:44:00,
2013-05-20 15:49:00,87.8,66.8,29.76,South,183,7.0,10.0,50,0.00,,,0.00,Wunderground v.1.15,2013-05-20 19:49:00,
2013-05-20 15:55:00,88.0,67.6,29.76,South,190,7.0,12.0,51,0.00,,,0.00,Wunderground v.1.15,2013-05-20 19:55:00,
2013-05-20 16:01:00,88.3,67.3,29.75,SSW,209,8.0,19.0,50,0.00,,,0.00,Wunderground v.1.15,2013-05-20 20:01:00,
2013-05-20 16:06:00,88.3,67.3,29.75,SW,227,10.0,19.0,50,0.00,,,0.00,Wunderground v.1.15,2013-05-20 20:06:00,
2013-05-20 16:12:00,88.1,67.1,29.75,SSW,213,10.0,11.0,50,0.00,,,0.00,Wunderground v.1.15,2013-05-20 20:12:00,
2013-05-20 16:18:00,88.5,67.5,29.75,SSW,209,8.0,11.0,50,0.00,,,0.00,Wunderground v.1.15,2013-05-20 20:18:00,
2013-05-20 16:23:00,88.8,68.3,29.75,SSW,213,7.0,12.0,51,0.00,,,0.00,Wunderground v.1.15,2013-05-20 20:23:00,
2013-05-20 16:29:00,89.2,67.5,29.74,SSW,213,7.0,7.0,49,0.00,,,0.00,Wunderground v.1.15,2013-05-20 20:29:00,
2013-05-20 16:35:00,89.3,67.0,29.75,SW,215,7.0,13.0,48,0.00,,,0.00,Wunderground v.1.15,2013-05-20 20:35:00,
2013-05-20 16:41:00,89.5,67.8,29.75,SSW,209,5.0,9.0,49,0.00,,,0.00,Wunderground v.1.15,2013-05-20 20:41:00,
2013-05-20 16:47:00,89.3,67.0,29.75,SW,227,7.0,17.0,48,0.00,,,0.00,Wunderground v.1.15,2013-05-20 20:47:00,
2013-05-20 16:52:00,89.2,68.1,29.75,SW,232,8.0,19.0,50,0.00,,,0.00,Wunderground v.1.15,2013-05-20 20:52:00,
2013-05-20 16:58:00,89.4,67.1,29.75,SW,217,6.0,19.0,48,0.00,,,0.00,Wunderground v.1.15,2013-05-20 20:58:00,
2013-05-20 17:04:00,89.0,66.8,29.76,SSW,206,5.0,6.0,48,0.00,,,0.00,Wunderground v.1.15,2013-05-20 21:04:00,
2013-05-20 17:09:00,88.8,67.8,29.75,SW,234,4.0,5.0,50,0.00,,,0.00,Wunderground v.1.15,2013-05-20 21:09:00,
2013-05-20 17:15:00,89.0,66.8,29.76,WNW,284,4.0,6.0,48,0.00,,,0.00,Wunderground v.1.15,2013-05-20 21:15:00,
2013-05-20 17:20:00,89.1,67.5,29.76,WSW,240,3.0,6.0,49,0.00,,,0.00,Wunderground v.1.15,2013-05-20 21:20:00,
2013-05-20 17:25:00,88.8,66.6,29.76,SSW,198,3.0,15.0,48,0.00,,,0.00,Wunderground v.1.15,2013-05-20 21:25:00,
2013-05-20 17:31:00,88.6,67.0,29.76,SW,218,4.0,7.0,49,0.00,,,0.00,Wunderground v.1.15,2013-05-20 21:31:00,
2013-05-20 17:37:00,88.4,66.2,29.76,SW,224,3.0,7.0,48,0.00,,,0.00,Wunderground v.1.15,2013-05-20 21:37:00,
2013-05-20 17:42:00,88.0,65.8,29.76,SSW,204,3.0,7.0,48,0.00,,,0.00,Wunderground v.1.15,2013-05-20 21:42:00,
2013-05-20 17:47:00,87.9,66.4,29.76,SSW,200,3.0,7.0,49,0.00,,,0.00,Wunderground v.1.15,2013-05-20 21:47:00,
2013-05-20 17:52:00,87.9,66.9,29.75,SSW,205,3.0,9.0,50,0.00,,,0.00,Wunderground v.1.15,2013-05-20 21:52:00,
2013-05-20 17:58:00,88.0,67.0,29.75,West,278,4.0,12.0,50,0.00,,,0.00,Wunderground v.1.15,2013-05-20 21:58:00,
2013-05-20 18:03:00,88.0,67.0,29.75,WSW,244,4.0,7.0,50,0.00,,,0.00,Wunderground v.1.15,2013-05-20 22:03:00,
2013-05-20 18:09:00,87.8,66.3,29.75,WSW,238,5.0,5.0,49,0.00,,,0.00,Wunderground v.1.15,2013-05-20 22:09:00,
2013-05-20 18:14:00,87.8,66.8,29.75,SSW,211,5.0,10.0,50,0.00,,,0.00,Wunderground v.1.15,2013-05-20 22:14:00,
2013-05-20 18:19:00,87.9,66.9,29.75,SSW,207,3.0,3.0,50,0.00,,,0.00,Wunderground v.1.15,2013-05-20 22:19:00,
2013-05-20 18:25:00,87.9,66.4,29.76,West,261,1.0,4.0,49,0.00,,,0.00,Wunderground v.1.15,2013-05-20 22:25:00,
2013-05-20 18:30:00,87.3,66.4,29.76,South,190,3.0,3.0,50,0.00,,,0.00,Wunderground v.1.15,2013-05-20 22:30:00,
2013-05-20 18:35:00,86.9,65.4,29.76,SSW,208,4.0,6.0,49,0.00,,,0.00,Wunderground v.1.15,2013-05-20 22:35:00,
2013-05-20 18:41:00,86.5,65.7,29.75,SW,223,2.0,3.0,50,0.00,,,0.00,Wunderground v.1.15,2013-05-20 22:41:00,
2013-05-20 18:47:00,86.0,66.3,29.76,SW,220,0.0,3.0,52,0.00,,,0.00,Wunderground v.1.15,2013-05-20 22:47:00,
2013-05-20 18:52:00,85.5,65.9,29.78,SSW,199,0.0,10.0,52,0.00,,,0.00,Wunderground v.1.15,2013-05-20 22:52:00,
2013-05-20 18:58:00,78.7,61.7,29.84,WSW,252,11.0,25.0,56,0.00,,,0.01,Wunderground v.1.15,2013-05-20 22:58:00,
2013-05-20 19:03:00,69.7,62.2,29.84,WNW,294,17.0,18.0,77,3.47,,,0.15,Wunderground v.1.15,2013-05-20 23:03:00,
2013-05-20 19:08:00,66.7,61.0,29.84,West,277,10.0,18.0,82,3.47,,,0.29,Wunderground v.1.15,2013-05-20 23:08:00,
2013-05-20 19:13:00,65.8,61.8,29.80,SW,232,5.0,9.0,87,0.31,,,0.41,Wunderground v.1.15,2013-05-20 23:13:00,
2013-05-20 19:19:00,66.1,62.4,29.80,West,272,3.0,3.0,88,0.18,,,0.43,Wunderground v.1.15,2013-05-20 23:19:00,
2013-05-20 19:25:00,66.7,63.0,29.79,West,273,1.0,5.0,88,0.06,,,0.43,Wunderground v.1.15,2013-05-20 23:25:00,
2013-05-20 19:30:00,66.9,63.6,29.80,West,273,0.0,0.0,89,0.04,,,0.43,Wunderground v.1.15,2013-05-20 23:30:00,
2013-05-20 19:35:00,66.9,63.9,29.80,West,273,0.0,0.0,90,0.00,,,0.43,Wunderground v.1.15,2013-05-20 23:35:00,
2013-05-20 19:41:00,67.0,64.0,29.80,West,273,0.0,0.0,90,0.00,,,0.43,Wunderground v.1.15,2013-05-20 23:41:00,
2013-05-20 19:46:00,67.1,64.4,29.79,West,273,0.0,0.0,91,0.00,,,0.43,Wunderground v.1.15,2013-05-20 23:46:00,
2013-05-20 19:52:00,67.5,65.4,29.78,West,271,0.0,0.0,93,0.00,,,0.43,Wunderground v.1.15,2013-05-20 23:52:00,
2013-05-20 19:58:00,67.7,65.6,29.79,West,270,0.0,0.0,93,0.00,,,0.44,Wunderground v.1.15,2013-05-20 23:58:00,
2013-05-20 20:03:00,67.9,65.8,29.79,West,270,0.0,0.0,93,0.00,,,0.44,Wunderground v.1.15,2013-05-21 00:03:00,
2013-05-20 20:09:00,68.0,65.9,29.79,West,270,0.0,0.0,93,0.00,,,0.44,Wunderground v.1.15,2013-05-21 00:09:00,
2013-05-20 20:14:00,68.0,65.9,29.78,West,270,0.0,0.0,93,0.00,,,0.44,Wunderground v.1.15,2013-05-21 00:14:00,
2013-05-20 20:20:00,68.0,65.9,29.78,West,269,0.0,0.0,93,0.00,,,0.44,Wunderground v.1.15,2013-05-21 00:20:00,
2013-05-20 20:26:00,68.0,66.2,29.78,West,270,0.0,0.0,94,0.00,,,0.44,Wunderground v.1.15,2013-05-21 00:26:00,
2013-05-20 20:31:00,68.0,66.2,29.77,West,270,0.0,0.0,94,0.00,,,0.44,Wunderground v.1.15,2013-05-21 00:31:00,
2013-05-20 20:36:00,67.9,65.8,29.77,West,270,0.0,0.0,93,0.00,,,0.44,Wunderground v.1.15,2013-05-21 00:36:00,
2013-05-20 20:42:00,67.8,66.0,29.77,West,270,0.0,0.0,94,0.00,,,0.44,Wunderground v.1.15,2013-05-21 00:42:00,
2013-05-20 20:48:00,67.8,66.0,29.77,West,270,0.0,0.0,94,0.00,,,0.44,Wunderground v.1.15,2013-05-21 00:48:00,
2013-05-20 20:53:00,67.7,65.9,29.78,West,269,0.0,0.0,94,0.00,,,0.44,Wunderground v.1.15,2013-05-21 00:53:00,
2013-05-20 20:59:00,67.6,65.8,29.78,West,270,0.0,0.0,94,0.00,,,0.44,Wunderground v.1.15,2013-05-21 00:59:00,
2013-05-20 21:04:00,67.6,65.8,29.78,West,269,0.0,0.0,94,0.00,,,0.44,Wunderground v.1.15,2013-05-21 01:04:00,
2013-05-20 21:10:00,67.5,65.7,29.79,West,269,0.0,0.0,94,0.00,,,0.44,Wunderground v.1.15,2013-05-21 01:10:00,
2013-05-20 21:15:00,67.5,65.7,29.79,West,269,0.0,0.0,94,0.00,,,0.44,Wunderground v.1.15,2013-05-21 01:15:00,
2013-05-20 21:21:00,67.4,65.6,29.79,West,270,0.0,0.0,94,0.00,,,0.44,Wunderground v.1.15,2013-05-21 01:21:00,
2013-05-20 21:26:00,67.3,65.5,29.79,West,270,0.0,0.0,94,0.00,,,0.44,Wunderground v.1.15,2013-05-21 01:26:00,
2013-05-20 21:31:00,67.3,65.5,29.79,West,270,0.0,0.0,94,0.00,,,0.44,Wunderground v.1.15,2013-05-21 01:31:00,
2013-05-20 21:37:00,67.3,65.5,29.79,West,269,0.0,0.0,94,0.00,,,0.44,Wunderground v.1.15,2013-05-21 01:37:00,
2013-05-20 21:42:00,67.2,65.4,29.79,West,270,0.0,0.0,94,0.00,,,0.44,Wunderground v.1.15,2013-05-21 01:42:00,
2013-05-20 21:48:00,67.2,65.4,29.79,West,270,0.0,0.0,94,0.00,,,0.44,Wunderground v.1.15,2013-05-21 01:48:00,
2013-05-20 21:53:00,67.2,65.4,29.79,West,270,0.0,0.0,94,0.00,,,0.44,Wunderground v.1.15,2013-05-21 01:53:00,
2013-05-20 21:59:00,67.0,65.2,29.80,West,270,0.0,0.0,94,0.00,,,0.44,Wunderground v.1.15,2013-05-21 01:59:00,